Back to catalog

FENGYUN 1C DEB *

AlivePO
NORAD 47009·DEBRIS·🇨🇳 China

Launched May 10, 1999 from Taiyuan Satellite Launch Center

Loading…

Next Passes (next 24 hours)

TLE

FreshSource: Space-Track

Epoch: Sep 12, 2026, 03:00 UTC

1 47009U 99025FAK 26255.12534607  .00000026  00000-0  87547-4 0  9996
2 47009  98.9706 211.7492 0351955 298.1958  58.4045 13.37440879624630

Track FENGYUN 1C DEB * in real time with AllMySat

Download on the App Store